Location: Libas
(9.8833°N, 125.9833°E)
Time: 09:36:48
(UTC+00:00)

Envisat - Pass Details

Date: 28 January 2021
Orbit: 764 x 766 km, 98.1° (Epoch: 25 February)

Event Time Altitude Azimuth Distance (km) Brightness Sun altitude
Rises 21:13:40 0° 6° (N) 3,217 6.1 -11.4°
Reaches altitude 10° 21:15:59 10° 3° (N) 2,292 5.3 -10.8°
Maximum altitude 21:20:58 64° 283° (WNW) 842 3.0 -9.7°
Drops below altitude 10° 21:25:58 10° 202° (SSW) 2,293 5.4 -8.5°
Sets 21:28:17 0° 199° (SSW) 3,219 6.2 -7.9°
